Weather in Mymrino

Russia / Oryol Oblast     53°18′09″N   35°29′25″E
temp.,
°C
wind,
m/s
gust,
m/s
humid.,
%
clouds,
%
prec.,
mm/h
press.,
hPa
HPBL,
m
21 april, wed
wed2100:00+2nne3797100 0.0 1008411
03:00+2n3697100 0.1 1007434
06:00+2nw3697100 0.0 1006459
09:00+3wnw3596100 0.1 1008567
12:00+4w3588100 0.1 1009704
15:00+6wsw4573100 0.1 1010995
18:00+6wsw3577100 0.0 1011644
21:00+4sw4792100 0.1 1013311
22 april, thu
thu2200:00+4ssw499693 0.2 1014402
03:00+4ssw3795100 0.9 1015401
06:00+3s4994100 0.3 1016285
09:00+7s598380 0.3 1016381
12:00+12ssw686754 0.3 10161301
15:00+12sw7107295 2.0 10151387
18:00+12ssw6117597 0.4 10151024
21:00+9ssw5138534 0.6 1016336
23 april, fri
fri2300:00+8s5148574 0.1 1016346
03:00+8s5148369 0.3 1016389
06:00+8s5148595 0.1 1016360
09:00+11s6137489 0.2 1015750
12:00+15s8125651 0.7 10141979
15:00+14s6106099 1.8 10131492
18:00+10nw2493100 2.8 1012373
21:00+7wnw3398100 10.2 1012204
24 april, sat
sat2400:00+5wnw5696100 3.2 1011480
03:00+3wnw41098100 6.1 1011454
06:00+3w4897100 1.8 1011495
09:00+5w587861 2.3 1011958
12:00+8wsw685280 0.1 10112097
15:00+7wsw81059100 0.8 10111733
18:00+6w596529 0.6 10111530
21:00+3wsw411815 0.6 1012433
25 april, sun
sun2500:00+1wsw4108814 0.0 1012344
03:000wsw49955 0.0 1013266
06:000wsw39945 0.0 1013283
09:00+5wsw577212 0.0 1012978
12:00+7wsw6854100 0.8 10121990
15:00+6wsw795697 1.8 10121790
18:00+6w6956100 0.5 10121317
21:00+2wsw411805 0.5 1013423